Wind_Speed
34 36 40 44 48 51 50 44 40 39 40 40 38 37 41 45 50 55 55 56 56 54 53 54 53 51 50 51 51 49 48 48 46 43 45 47 45 45 45 44 43 42 43 44 41 38 38 38 39 37 36 35 34 33 33 31 31 31 31 32 32 32 32 32 34 35 36 36 35 36 38 40 41 43 42 40 39 40 41 41 41 40 40 39 38
32 34 36 40 44 49 52 50 46 43 41 41 39 38 40 43 47 50 53 54 54 52 50 51 52 53 53 52 50 47 46 47 47 46 46 48 48 48 48 47 47 48 48 48 46 42 40 40 42 40 37 36 35 34 33 32 32 32 32 32 32 33 33 33 34 36 36 36 36 37 39 40 42 43 41 40 40 41 42 42 41 41 41 40 39
30 32 34 37 40 43 48 50 48 45 42 42 41 39 40 43 45 48 52 54 55 54 52 50 50 50 51 51 49 47 46 47 49 49 49 49 49 50 51 50 51 51 50 49 48 45 42 42 44 42 39 37 36 35 34 33 33 33 33 33 33 34 34 35 36 37 38 38 38 38 39 40 41 41 41 41 42 43 43 42 42 42 42 42 40
30 31 32 34 36 38 41 45 47 46 44 43 43 42 40 42 44 45 49 54 56 55 54 51 51 52 52 52 51 49 47 48 50 51 51 50 50 50 51 51 51 51 50 50 50 47 44 44 45 44 41 39 38 36 35 35 34 34 34 34 35 35 36 37 38 38 39 39 39 39 39 39 40 40 41 43 44 44 44 43 43 43 43 43 41
30 30 31 32 33 34 36 39 43 46 45 44 44 43 42 42 42 43 46 52 55 54 53 52 51 52 53 50 49 47 46 48 50 51 52 51 51 51 51 49 49 50 51 52 52 49 46 45 46 45 43 41 39 37 36 35 35 35 36 36 37 37 38 39 39 39 40 39 39 38 38 39 40 41 43 44 45 45 44 44 44 44 44 44 42
31 30 30 31 31 31 32 34 38 41 43 42 43 44 44 44 43 43 44 50 54 53 52 52 51 50 50 49 49 49 48 49 50 51 52 51 52 51 49 48 48 49 50 53 53 50 47 47 47 45 44 43 40 38 38 36 35 36 37 38 39 40 41 41 40 40 40 38 37 38 39 41 42 43 44 46 46 46 45 45 45 45 45 44 44
31 30 30 29 29 29 30 31 34 37 39 40 42 45 46 45 45 44 43 47 53 53 51 52 52 52 51 49 48 48 48 49 49 50 51 51 52 51 49 48 49 49 49 51 53 50 47 47 46 45 45 44 42 40 39 38 37 38 39 41 42 42 42 41 39 40 40 38 38 40 42 43 43 44 46 47 47 47 47 46 45 45 46 45 45
32 31 30 29 28 27 28 29 32 34 37 39 41 46 48 47 45 45 44 45 50 53 54 53 51 51 52 50 48 48 48 47 47 48 50 52 53 53 51 49 49 49 48 50 52 50 46 45 46 46 46 45 44 43 42 41 41 42 42 42 42 42 42 40 38 39 40 40 41 43 44 44 45 46 47 48 48 48 48 47 46 47 46 46 47
35 33 31 30 29 29 27 27 29 31 34 37 40 45 51 51 48 47 46 46 47 51 54 55 53 52 52 50 48 48 47 46 46 48 50 52 53 53 50 49 48 47 47 48 49 48 47 47 46 46 47 47 46 46 46 45 45 45 45 44 42 41 41 39 39 41 42 43 44 45 46 47 47 48 49 49 50 50 49 48 48 48 48 48 49
38 36 33 32 32 31 28 26 26 28 29 32 37 43 50 51 49 48 47 46 47 48 51 54 56 56 54 52 51 49 47 47 48 49 51 52 53 51 49 47 46 45 45 46 48 48 49 48 47 47 48 49 49 49 49 48 48 48 47 45 43 42 41 41 42 43 44 45 46 46 48 49 49 50 50 51 51 51 50 49 49 49 49 50 51
40 38 36 34 34 33 30 26 25 25 25 27 32 39 46 49 47 46 44 43 44 45 45 48 51 54 55 56 56 55 54 53 52 51 52 52 52 50 48 47 46 45 46 48 49 49 50 49 48 49 51 52 52 52 52 52 51 50 48 46 45 45 45 46 46 46 47 48 49 48 49 49 50 51 52 52 51 51 51 50 50 50 51 52 52
42 41 39 37 36 34 31 27 24 23 23 24 27 33 41 47 48 47 45 44 44 45 45 45 46 49 52 54 56 56 56 56 54 53 53 53 53 51 48 48 48 48 49 49 49 49 49 49 50 52 54 54 54 55 55 54 53 51 48 47 48 49 49 49 48 48 49 50 52 51 50 49 50 52 53 53 52 52 51 51 50 51 53 54 53
44 43 42 40 39 37 33 28 24 23 24 24 25 28 35 43 48 50 50 49 48 48 48 48 48 49 51 53 54 54 55 56 55 54 55 55 54 53 51 50 50 50 50 50 49 49 50 51 53 55 57 57 57 57 57 56 54 53 51 50 50 51 51 50 49 50 51 51 53 54 52 50 51 54 55 54 53 52 51 51 52 54 56 56 54
47 45 44 43 41 40 37 32 27 24 24 25 25 25 29 37 46 52 53 52 52 52 51 50 49 49 50 51 50 49 51 53 54 54 55 55 55 54 52 51 51 51 51 51 50 50 51 53 55 57 59 60 60 59 59 58 56 56 55 53 52 52 52 52 51 51 52 52 54 56 54 52 54 56 56 55 54 53 53 54 55 57 57 56 56
48 48 47 45 44 43 42 39 34 28 26 25 25 25 26 31 41 51 55 55 54 53 51 49 48 48 49 50 49 49 50 51 51 52 53 54 53 53 51 51 51 52 52 53 53 53 54 55 56 57 59 60 60 60 59 59 58 59 59 57 54 53 53 53 53 53 54 55 55 55 55 54 55 56 56 56 55 55 55 56 57 58 57 57 57
47 49 49 48 46 45 45 44 41 37 31 27 25 26 27 28 35 45 53 55 55 54 52 50 48 48 50 50 49 50 52 52 50 51 53 53 53 52 52 52 53 53 54 55 56 57 58 58 59 59 59 60 60 60 60 60 60 61 60 58 56 55 55 56 56 56 56 56 56 56 56 56 56 56 56 57 57 57 58 59 59 58 58 59 59
45 48 49 49 49 48 47 46 45 43 39 33 28 26 28 30 32 38 44 48 50 53 54 53 52 51 52 51 50 49 50 52 51 52 53 53 53 53 53 53 54 55 56 58 59 60 61 61 62 61 61 61 61 60 60 60 62 62 61 59 57 57 57 58 59 58 57 57 57 58 58 57 57 57 58 58 59 59 60 60 60 60 60 61 61
44 46 48 50 51 50 49 48 47 47 45 41 35 30 28 31 33 37 41 43 43 45 47 49 51 51 49 49 49 48 48 50 52 54 55 55 55 56 56 56 55 56 57 59 60 61 62 62 62 61 61 61 61 61 61 62 63 63 62 60 58 58 59 60 60 59 58 58 59 59 58 58 59 59 60 61 61 61 62 62 62 62 63 63 64
44 46 47 49 51 52 52 51 50 49 49 47 43 38 33 32 33 37 42 46 47 45 44 44 48 50 47 45 46 47 48 51 55 57 56 56 58 59 60 60 59 58 58 58 58 59 60 61 61 61 61 62 63 63 63 63 62 62 62 61 60 59 60 60 59 58 58 59 60 60 60 60 61 61 62 63 63 64 64 64 64 64 65 66 67
43 44 46 48 49 51 53 54 52 51 51 51 49 46 41 37 35 37 42 48 51 51 48 46 47 50 48 45 46 48 51 56 59 59 57 58 59 60 61 61 60 59 58 58 59 59 60 61 62 62 63 64 65 65 64 63 62 61 61 60 59 58 59 59 60 61 61 61 61 62 62 62 63 64 65 65 65 66 66 67 67 68 69 69 70
43 43 45 46 48 49 51 53 54 53 54 54 54 52 49 44 41 40 41 45 50 54 54 51 50 51 50 49 50 51 53 56 59 59 59 60 59 59 60 60 59 59 59 59 60 61 62 63 64 64 64 65 65 64 63 62 60 59 59 58 57 58 59 60 62 63 63 63 64 65 65 66 66 66 67 67 68 69 69 70 71 71 71 71 71
45 44 44 45 47 48 49 51 53 53 54 56 57 56 55 51 48 46 44 44 46 51 54 54 54 54 54 54 55 56 55 55 55 56 58 59 60 60 60 60 61 61 61 60 61 61 62 62 63 62 61 61 61 61 61 59 58 58 59 59 60 61 62 62 63 64 65 66 67 68 69 69 69 69 70 71 71 71 72 72 73 73 72 72 73
50 47 46 46 46 47 48 50 51 52 53 56 58 59 59 57 54 52 51 49 48 48 50 52 56 58 58 58 58 58 57 57 57 56 56 56 55 57 59 60 61 62 62 62 63 63 64 65 65 64 62 61 61 62 62 61 62 62 63 64 65 66 67 67 68 68 69 70 71 72 72 73 73 73 74 74 73 73 73 73 73 74 74 75 77
54 52 49 48 48 47 48 49 51 51 52 54 57 59 61 61 59 57 55 54 53 52 51 52 55 59 61 62 62 61 60 60 62 62 61 58 56 55 56 57 58 59 61 62 64 66 68 69 71 70 69 68 69 68 67 67 67 67 68 69 69 70 71 72 73 73 74 74 74 74 74 74 74 74 75 75 74 74 74 74 75 76 78 79 79
58 57 54 52 51 50 50 50 50 51 52 53 55 57 60 62 62 61 60 58 57 57 57 56 57 60 62 63 65 67 67 67 66 66 65 64 62 60 59 58 58 59 60 62 64 67 69 71 73 73 72 73 74 74 74 73 73 73 73 73 73 74 74 74 74 74 74 73 72 71 71 72 72 73 73 74 74 75 76 77 79 80 81 81 82
61 61 59 57 56 55 53 52 52 52 53 54 54 56 58 60 62 63 63 62 61 60 60 60 60 62 63 64 65 67 70 71 71 70 68 68 66 65 63 61 60 61 63 65 67 69 70 71 71 70 71 72 73 73 73 73 73 73 73 72 72 72 71 71 70 70 69 69 69 69 69 70 71 72 73 75 76 78 80 81 82 83 84 85 86
63 63 63 62 60 59 57 56 55 54 54 55 55 56 57 58 60 61 62 62 62 62 62 63 63 64 65 66 67 68 69 71 72 72 72 70 68 65 63 62 62 64 66 67 69 70 71 70 70 69 70 71 71 71 70 70 69 69 69 68 68 67 67 67 68 68 69 70 70 71 73 74 75 77 79 80 82 83 85 86 87 87 88 89 90
65 64 65 64 63 62 61 60 59 57 56 56 56 57 57 58 59 61 61 61 61 61 62 64 65 66 67 68 69 70 71 71 72 73 73 72 70 67 66 65 65 67 68 69 71 72 71 71 71 71 70 71 72 71 70 70 71 71 70 70 70 70 71 71 72 74 75 76 77 79 80 81 82 83 85 86 87 88 89 90 91 91 91 91 91
67 66 66 66 65 64 64 63 62 61 60 58 58 58 59 59 60 61 62 62 62 61 62 63 65 67 69 70 71 72 73 73 73 74 75 75 74 73 73 72 72 72 72 72 73 75 74 74 74 74 74 74 75 74 74 74 75 76 76 75 75 76 77 78 79 80 81 83 84 85 85 86 87 88 89 90 91 92 93 93 92 92 92 92 92
68 67 67 67 66 66 65 65 65 64 63 62 60 60 60 61 62 62 63 63 64 63 64 65 66 68 70 72 74 74 75 76 76 75 76 77 77 77 77 78 78 78 77 77 77 79 80 80 81 81 81 80 80 80 80 80 81 81 81 81 81 82 83 84 85 86 87 88 88 89 89 90 90 91 92 93 93 94 94 93 93 93 93 93 94
67 67 67 68 67 67 67 67 67 67 66 65 64 62 62 63 64 64 65 65 66 66 66 67 68 69 70 73 76 77 78 78 78 78 78 78 78 78 79 81 82 82 81 82 82 84 85 85 85 85 85 85 84 84 84 85 85 86 86 87 88 88 89 90 91 91 92 92 91 91 91 92 92 93 94 94 94 94 94 94 94 94 95 96 97
65 66 66 67 67 67 68 68 68 68 68 68 67 65 64 64 65 67 68 68 68 69 69 69 70 71 72 74 77 79 80 81 81 81 81 81 80 80 80 81 83 84 85 86 87 88 88 88 88 87 87 86 86 86 87 88 88 89 90 90 91 92 92 93 93 93 93 93 92 93 93 93 94 94 94 94 94 94 94 95 96 97 98 99 100
63 64 64 65 66 67 67 68 68 69 69 69 69 68 67 66 66 69 70 71 71 72 72 72 72 73 74 75 78 80 83 84 84 84 84 84 84 83 83 83 84 85 86 87 89 90 90 90 89 89 89 88 89 89 89 89 89 90 90 90 90 90 91 92 92 93 93 93 94 94 94 94 95 95 95 95 95 96 96 98 99 100 101 101 102
60 61 62 63 64 65 66 67 67 67 68 69 69 69 69 67 67 68 71 73 74 74 75 75 75 75 76 77 79 81 84 86 87 88 87 87 87 87 87 88 88 89 89 89 90 91 92 92 91 90 90 90 90 90 90 90 90 90 90 90 91 91 92 93 94 95 95 96 96 96 96 96 97 97 97 97 98 98 100 101 102 103 103 104 105
56 57 59 60 61 63 64 64 65 66 67 67 68 69 69 68 67 67 70 74 76 76 77 77 79 79 79 80 80 81 83 86 89 91 91 91 90 90 91 92 93 94 94 94 94 95 95 95 94 93 92 92 92 92 92 92 92 92 93 93 94 95 96 97 98 98 98 98 98 98 98 99 99 99 99 100 101 101 102 103 104 105 106 107 108
51 53 55 56 58 60 61 62 63 64 65 66 66 67 67 67 67 66 67 72 77 79 79 79 80 82 83 84 84 84 84 85 88 91 93 94 94 93 93 93 94 95 96 97 97 97 98 97 96 95 95 95 95 95 96 96 96 97 97 98 99 99 100 100 100 100 100 100 100 100 100 101 101 101 102 103 103 104 105 106 107 107 108 110 111
47 48 50 52 54 56 59 60 61 62 63 64 65 65 65 66 66 65 65 68 73 79 81 81 81 82 84 86 88 89 89 88 88 89 92 94 95 95 95 95 95 95 96 96 96 96 96 96 96 96 96 97 97 98 99 99 100 100 100 101 101 101 101 102 102 102 102 102 102 103 103 103 103 104 104 105 106 107 108 108 109 110 112 113 114
45 46 48 49 51 53 55 57 59 61 62 63 64 64 65 65 65 64 64 64 68 74 80 83 83 83 84 85 88 90 92 93 92 91 92 93 94 95 96 96 96 96 96 96 96 95 95 95 95 95 95 96 97 99 99 100 101 101 101 101 102 102 103 103 104 105 105 105 105 105 105 105 106 106 107 108 108 109 110 111 112 114 115 116 117
43 44 45 47 48 50 52 54 56 58 60 62 63 64 65 65 66 65 65 65 65 69 75 81 84 85 85 85 86 88 91 94 95 95 95 94 94 95 96 97 97 97 97 97 97 97 97 97 97 96 97 97 98 99 100 101 101 101 102 102 103 104 104 105 106 106 106 106 106 106 107 107 108 109 110 110 111 112 113 115 116 117 118 118 119
41 42 43 44 46 48 50 51 53 55 57 59 62 63 65 66 66 67 67 67 67 67 70 75 80 85 87 88 88 88 89 92 94 96 97 97 97 96 97 97 98 98 98 98 99 99 99 99 99 100 100 100 101 102 102 103 103 103 103 104 104 104 105 105 106 107 107 108 108 109 109 110 111 112 113 114 115 116 117 118 119 120 120 121 122
38 40 41 43 44 45 47 49 51 53 54 56 58 60 63 65 66 67 68 68 69 69 70 72 75 80 84 87 89 90 91 92 93 95 97 99 99 99 98 98 98 98 99 99 100 101 102 102 102 102 102 103 103 103 104 104 104 104 105 105 106 106 107 108 108 109 110 111 111 112 113 114 115 115 116 117 118 119 120 121 122 123 123 123 124
35 36 38 39 41 43 45 46 48 51 53 54 56 57 60 62 64 66 68 69 70 71 72 72 73 76 79 82 86 89 91 93 93 94 96 98 101 102 102 101 100 100 100 100 100 101 103 103 104 104 105 105 105 106 106 106 107 107 108 108 109 110 111 112 112 113 113 114 114 115 116 116 117 118 119 120 122 123 124 124 125 125 125 124 124
36 36 36 36 38 40 42 44 46 48 50 53 54 56 58 60 61 63 65 67 69 71 72 73 74 76 77 79 82 85 88 90 93 94 95 97 99 102 104 105 104 104 103 102 102 102 103 104 105 105 105 106 106 107 108 108 109 110 110 111 112 112 113 114 114 114 115 115 116 117 118 119 121 122 123 125 125 126 126 127 126 126 125 124 124
37 38 37 37 37 38 39 41 43 46 48 50 52 54 56 58 60 61 62 64 66 68 71 72 74 76 78 79 81 83 85 87 90 92 94 96 98 100 102 105 106 107 107 106 105 105 105 106 107 107 107 107 107 108 108 109 110 110 111 112 113 114 114 115 116 117 117 119 120 121 122 124 125 126 127 128 128 128 127 127 126 125 125 124 124
35 36 37 38 39 39 39 39 40 42 45 47 50 52 54 56 58 60 61 62 64 65 67 69 72 75 77 79 80 82 84 86 88 90 92 94 96 99 101 103 105 107 109 109 110 109 109 109 110 110 110 111 111 111 112 112 113 114 114 115 116 117 118 119 121 122 123 124 125 126 127 127 128 129 129 129 128 127 126 126 126 125 125 124 122
32 33 34 36 37 39 40 40 40 41 42 44 46 49 51 53 55 58 60 61 63 64 65 66 68 71 74 76 79 81 83 85 87 89 91 93 95 97 99 101 103 105 108 110 111 112 113 113 114 114 115 115 116 116 117 118 119 120 121 121 122 123 124 125 126 127 127 128 128 129 129 129 129 129 128 128 127 127 126 126 126 124 123 121 120
32 32 32 33 34 36 37 39 41 42 42 42 43 45 47 49 52 54 57 60 62 63 64 65 66 68 70 72 75 78 80 83 85 88 90 92 94 96 98 100 101 103 105 107 109 111 113 115 116 117 118 119 119 120 121 122 123 124 125 125 126 127 128 128 129 129 129 129 129 129 129 128 128 128 127 127 127 126 126 125 123 122 120 119 117
34 33 32 32 32 33 34 36 38 40 41 43 43 44 44 46 48 50 53 56 59 61 62 63 64 66 67 69 71 73 76 79 82 85 88 90 93 95 97 99 101 103 104 105 107 109 111 113 115 117 118 119 121 121 122 123 124 125 125 126 126 127 127 128 128 128 129 129 129 129 128 128 128 128 127 126 125 124 123 122 120 119 117 115 113
34 34 34 34 33 33 33 33 34 36 38 40 42 43 44 45 46 47 49 51 54 56 59 61 62 64 65 66 68 70 72 74 77 79 83 86 89 92 95 97 100 102 103 105 106 108 109 111 112 114 116 118 119 121 122 123 123 124 125 125 126 126 127 127 127 128 128 128 128 128 128 127 126 126 125 124 123 122 120 119 117 115 112 109 106
33 33 34 34 34 34 34 34 34 34 35 36 38 39 41 43 45 46 47 48 50 52 54 56 58 60 62 64 65 67 69 71 73 75 77 80 84 87 90 93 96 99 101 103 105 107 108 109 111 112 113 115 116 118 119 120 121 122 123 124 125 125 125 126 126 126 126 126 126 126 125 124 124 123 122 121 119 118 116 114 111 108 105 103 100
33 33 33 34 34 34 34 34 34 34 35 35 36 36 37 38 41 43 45 47 48 48 49 50 52 55 58 60 62 64 66 68 70 71 73 75 77 80 84 87 91 94 97 99 102 104 106 107 109 110 112 113 114 115 116 117 119 120 120 121 122 122 123 123 123 123 123 123 123 122 122 121 120 119 117 116 114 112 110 108 105 102 99 96 93
Wind_Direction
264 257 251 246 243 246 250 247 240 242 247 250 254 250 238 232 231 231 229 225 222 222 223 224 226 228 231 234 237 240 242 241 240 239 236 236 241 246 249 252 253 255 262 268 268 265 266 267 266 270 273 272 273 276 275 273 272 272 273 273 272 272 272 276 280 284 287 287 287 286 286 287 289 293 294 292 290 293 296 296 298 299 301 301 299
265 258 253 250 248 247 249 249 246 246 248 250 253 251 241 233 231 230 228 225 221 219 221 223 225 227 230 232 234 237 240 241 243 243 240 238 239 243 248 252 254 258 264 268 269 268 267 265 265 269 271 271 273 274 272 271 271 272 273 273 272 272 273 276 279 283 285 286 286 287 287 287 289 291 292 290 290 293 296 296 297 298 299 299 298
266 262 257 254 253 251 250 250 248 245 246 248 251 253 246 236 232 229 226 224 220 217 219 223 227 228 229 230 234 238 240 241 242 243 242 241 241 243 247 251 254 259 264 265 266 269 267 263 264 267 269 270 272 272 271 270 271 272 272 272 272 273 274 276 279 281 283 284 285 285 285 286 288 289 290 289 290 294 296 295 296 297 297 298 297
267 266 264 260 257 255 253 251 247 243 245 248 250 253 250 238 232 229 225 222 219 216 219 224 229 231 232 233 237 239 239 238 239 241 243 244 244 244 247 250 253 257 261 261 262 267 267 261 261 264 267 270 271 270 271 271 271 272 273 273 273 273 275 276 277 279 280 281 282 282 284 285 287 288 288 289 291 293 294 294 294 295 296 298 297
270 269 270 267 264 260 255 251 247 244 245 248 249 251 249 240 231 227 225 221 217 216 220 225 227 229 231 234 237 238 237 236 237 239 242 243 244 244 246 248 251 254 257 259 260 264 264 259 258 262 266 268 268 270 272 272 271 272 274 275 274 274 274 274 274 276 276 277 279 281 284 286 287 288 288 290 291 293 293 293 293 294 296 298 298
271 270 271 272 271 267 259 252 247 244 244 245 245 246 245 240 233 227 224 221 216 215 220 223 225 228 231 234 237 238 237 237 238 240 242 242 243 245 246 248 250 252 255 257 259 262 262 257 257 261 264 266 266 269 272 271 271 272 273 274 274 274 274 273 273 274 274 276 279 283 285 286 287 289 289 290 291 291 292 292 293 295 297 298 298
267 268 269 271 272 271 266 257 250 246 245 244 244 242 239 237 234 229 226 222 218 216 219 223 226 229 232 234 237 237 237 237 238 240 241 242 244 246 247 249 250 252 253 255 258 261 260 257 258 260 262 263 265 269 272 271 272 274 273 273 273 274 274 273 272 273 275 278 282 284 286 286 288 289 289 290 291 291 291 291 293 294 296 297 298
261 264 265 265 266 268 267 263 256 251 249 247 244 240 236 234 232 230 228 225 221 219 220 223 226 228 231 235 238 239 240 239 239 239 240 241 242 245 246 247 249 251 253 255 258 260 259 257 259 260 259 260 264 268 271 272 275 277 276 276 275 274 274 272 271 274 277 281 283 285 286 287 288 289 289 290 291 291 290 291 293 293 294 297 298
255 258 260 259 260 263 264 264 261 256 251 248 243 237 233 232 232 230 229 229 227 225 224 224 225 228 231 234 237 239 240 240 239 238 238 239 241 243 245 247 249 252 253 253 254 256 257 258 259 259 258 260 263 268 270 272 276 278 279 279 276 273 271 270 272 275 278 281 283 285 286 286 287 289 290 291 291 291 290 290 291 293 294 297 298
253 254 256 256 258 259 259 261 263 260 254 248 242 235 231 231 232 231 231 231 231 230 229 228 228 230 233 234 235 238 240 241 241 241 242 243 244 245 247 249 250 251 251 251 253 255 257 259 259 258 258 260 262 265 269 272 275 278 279 280 276 271 269 270 274 276 279 281 283 284 285 286 287 289 290 291 291 290 289 289 291 292 293 295 297
254 252 252 253 254 254 253 256 261 262 257 251 244 236 230 227 228 229 230 230 230 231 232 231 231 233 235 236 238 240 242 244 246 247 248 248 248 249 250 251 251 251 252 253 255 257 258 258 257 256 256 258 261 263 267 272 274 276 278 278 274 271 270 272 274 277 280 282 283 283 284 284 286 288 289 290 289 289 289 289 291 291 292 294 295
252 251 250 250 250 249 248 251 256 257 256 252 246 239 232 226 223 224 226 227 227 229 230 231 233 235 237 239 241 242 244 245 247 249 249 250 251 252 253 252 252 252 253 254 255 256 256 254 253 253 254 257 260 262 266 270 272 274 276 276 273 272 272 272 274 277 280 282 283 282 281 282 284 287 288 289 288 288 288 289 290 290 291 293 294
249 249 248 247 247 245 243 243 246 249 250 249 246 241 234 228 223 222 224 225 226 227 229 232 235 237 239 240 242 244 245 246 246 247 248 250 252 253 253 252 252 252 253 254 255 254 253 251 250 251 253 256 259 262 266 269 270 272 274 274 273 272 271 270 273 277 281 281 281 281 280 281 283 285 286 288 288 287 288 288 289 290 291 292 293
247 247 247 245 245 243 240 238 239 241 244 245 245 241 236 230 225 222 223 225 226 228 230 233 235 236 237 239 240 242 244 245 246 246 247 249 250 251 251 251 251 252 253 254 254 253 252 250 250 250 252 255 258 262 265 267 268 270 272 273 273 271 269 269 273 277 279 278 278 279 279 280 282 284 286 286 286 286 286 287 288 289 290 291 293
247 246 246 245 244 242 240 237 236 237 240 241 242 242 238 232 227 224 224 226 227 228 228 230 233 236 237 239 240 240 241 243 245 246 246 247 247 248 249 250 250 251 251 251 252 252 251 251 251 252 253 256 259 262 264 266 267 269 271 273 272 270 268 270 273 276 276 276 276 277 277 279 281 283 284 284 284 285 285 286 287 288 289 291 293
251 246 245 245 245 242 240 238 235 234 237 239 239 240 239 235 229 226 226 228 229 230 230 231 235 239 240 240 240 239 239 240 243 244 245 245 246 247 248 249 249 249 249 249 248 249 251 253 254 255 256 258 260 262 263 265 266 268 271 272 271 270 270 272 273 275 275 275 274 275 277 279 280 281 281 281 282 283 283 284 286 287 289 291 292
257 250 246 244 244 244 242 239 235 233 234 236 236 237 238 237 233 227 225 228 231 233 235 237 238 239 239 238 235 235 237 239 240 241 242 243 245 246 247 247 248 248 249 248 249 250 252 254 255 257 258 259 260 261 262 264 266 268 270 271 271 270 271 272 273 274 274 273 273 275 277 278 278 278 278 279 280 281 283 284 286 287 289 291 293
259 255 249 245 243 244 242 240 237 234 233 234 235 235 234 236 235 229 224 224 226 229 232 235 236 234 233 233 233 234 237 239 240 240 241 242 243 244 245 246 248 250 249 249 250 251 253 254 255 256 257 258 259 261 262 264 266 267 268 269 270 271 271 272 272 273 273 273 273 274 275 276 276 276 277 278 279 281 283 285 286 288 290 292 293
260 257 253 249 245 243 242 241 239 236 233 234 235 235 235 234 234 231 226 224 224 226 229 231 230 228 228 231 234 236 239 241 240 240 242 243 245 246 247 249 250 251 251 250 251 252 253 254 255 256 257 258 260 262 263 265 266 267 268 270 271 272 271 271 271 271 271 272 273 274 274 274 275 276 277 278 280 282 283 285 286 288 290 291 292
262 259 256 253 249 245 243 242 240 237 235 234 234 236 237 237 235 232 229 227 225 228 232 234 229 226 227 232 235 237 240 242 242 242 245 248 250 251 251 252 252 251 252 252 254 254 255 256 257 258 259 260 261 263 264 265 266 268 269 271 271 270 269 269 269 270 271 272 272 273 274 274 275 276 278 279 281 282 283 285 286 288 289 290 290
262 260 258 255 252 249 246 244 241 239 237 235 234 235 238 240 238 236 233 231 229 230 235 238 234 228 227 231 235 237 240 244 246 246 247 249 250 250 251 252 252 253 253 254 255 256 257 258 259 259 260 261 262 263 264 265 266 267 268 268 268 267 267 267 268 270 271 272 273 274 275 275 276 277 279 280 281 283 284 286 287 288 289 289 289
259 259 258 257 255 252 250 247 244 241 238 237 236 236 238 240 241 240 239 237 235 234 237 239 238 233 230 231 235 238 239 242 245 247 248 248 249 250 251 252 253 253 253 254 255 256 257 258 258 259 259 260 261 261 262 262 262 263 264 264 264 265 265 266 267 269 271 273 275 275 276 276 277 278 279 281 283 285 286 287 287 287 288 288 289
257 256 257 257 256 255 252 250 247 244 240 238 237 237 238 240 241 242 242 241 241 240 240 241 239 236 234 234 235 237 239 240 242 244 245 247 249 250 252 254 254 254 254 254 254 254 255 256 257 257 257 258 258 259 259 260 260 261 262 263 263 264 265 266 268 271 273 274 275 276 276 277 278 279 281 283 284 285 286 286 286 287 287 288 289
256 254 254 254 254 254 253 252 250 247 244 241 239 238 237 239 240 242 243 243 243 243 243 243 241 239 237 236 235 235 236 238 240 242 243 245 245 246 249 251 253 254 255 255 255 255 256 257 257 257 257 258 258 259 259 261 262 263 264 264 264 265 266 268 269 271 273 274 275 276 277 277 278 280 281 282 283 284 285 286 286 287 288 288 289
256 253 252 252 252 251 251 251 250 249 247 244 242 240 238 238 239 241 242 243 244 244 245 245 244 244 243 242 241 239 237 237 239 240 242 243 244 245 246 247 249 251 253 254 255 256 257 258 259 260 261 261 261 261 262 263 264 265 266 266 266 267 269 270 272 273 274 276 276 277 277 278 278 278 279 280 281 283 284 286 287 287 288 288 288
257 254 252 251 250 250 250 249 249 249 248 246 244 242 241 239 238 239 241 242 244 245 245 245 245 245 245 246 246 245 243 242 241 241 242 243 245 246 247 247 248 249 250 252 254 255 257 259 261 263 264 265 265 266 266 267 268 268 268 269 270 271 272 273 274 275 275 276 276 276 276 276 277 278 279 280 281 282 284 285 286 287 288 288 289
256 255 253 251 250 250 249 249 248 247 247 247 246 244 243 241 240 239 239 240 241 243 244 245 245 245 245 245 245 246 246 246 245 244 244 244 245 246 247 247 248 249 251 253 254 256 258 260 261 263 263 264 265 266 267 268 268 268 268 269 269 270 270 271 271 272 272 272 273 274 274 275 276 277 278 280 281 282 284 285 286 287 288 289 290
257 255 253 252 251 251 250 250 249 247 246 245 245 244 243 242 241 240 239 238 238 240 242 243 243 244 245 244 244 243 244 245 246 245 245 244 243 243 244 245 246 248 251 252 254 255 257 258 259 260 261 262 263 264 265 265 265 266 266 267 267 267 267 268 268 270 271 272 273 274 275 276 277 278 279 280 281 283 284 285 286 287 288 289 290
257 256 254 253 252 251 251 250 250 249 247 245 244 243 243 242 241 241 240 238 237 237 239 240 241 242 243 243 243 242 242 242 243 244 245 245 244 243 243 244 245 246 248 250 252 254 255 255 256 257 259 260 261 262 263 263 263 264 265 265 266 266 267 268 269 270 271 272 274 275 276 277 278 279 280 281 282 284 285 286 287 288 289 291 293
257 256 254 253 252 252 251 251 251 250 249 247 245 243 242 241 241 240 240 239 238 236 236 237 239 241 242 242 243 243 242 241 241 242 243 245 246 245 244 245 246 246 247 249 251 253 254 255 256 258 259 260 261 262 263 263 263 264 264 265 266 266 267 268 269 271 272 273 274 275 276 277 278 280 281 282 284 285 286 288 289 291 292 295 297
257 256 255 254 253 252 251 251 251 251 250 249 247 244 242 241 240 239 239 239 239 237 235 235 236 238 240 241 242 243 243 243 242 241 241 243 245 245 245 246 246 247 248 249 250 252 253 255 257 259 260 261 262 262 263 264 265 265 266 267 267 268 268 269 270 272 273 274 275 276 277 278 280 281 282 284 285 287 289 290 292 293 295 297 298
259 258 257 256 255 254 252 251 251 251 251 250 249 246 243 241 239 238 237 237 238 238 237 235 235 236 238 239 241 242 243 244 244 244 243 242 242 243 244 245 246 248 249 250 251 253 255 256 258 260 261 262 263 264 264 265 266 267 268 269 270 271 272 273 274 275 276 277 278 279 281 282 283 285 286 287 289 290 291 292 293 294 296 297 299
261 260 259 258 256 255 254 253 252 252 252 252 251 250 247 243 240 238 237 236 236 236 237 237 236 235 235 237 239 240 242 243 244 245 245 244 243 243 243 243 245 247 250 252 253 255 257 259 260 261 262 263 264 265 266 267 268 269 270 271 271 273 274 275 276 278 279 280 282 283 284 285 286 287 288 289 290 291 291 292 293 295 296 298 299
261 260 259 258 257 256 255 254 253 252 252 252 252 252 251 248 243 239 237 235 235 235 235 236 237 236 236 236 237 238 240 241 243 244 245 246 245 245 244 244 244 246 249 251 253 255 257 259 260 261 262 263 264 265 266 267 268 269 269 270 271 272 273 275 276 278 279 281 282 284 285 286 287 288 289 289 290 291 291 292 294 295 296 297 298
260 259 258 257 257 256 255 254 253 252 251 251 251 251 252 251 248 243 238 236 235 234 234 234 235 236 237 237 237 237 238 239 241 243 244 245 246 246 246 246 246 246 248 250 252 254 256 258 259 260 261 262 263 264 265 266 267 268 269 270 271 272 273 274 276 277 279 280 282 283 284 285 286 287 288 288 289 290 291 292 293 294 295 296 297
261 259 257 256 255 255 255 254 253 252 251 250 250 250 250 251 250 247 242 238 235 234 234 234 234 235 236 237 238 238 238 239 239 241 242 244 246 247 247 248 248 249 250 251 253 255 256 258 259 259 260 261 262 263 264 265 266 267 268 269 270 272 273 274 275 277 278 280 281 282 283 283 284 285 286 287 289 290 291 292 293 294 295 296 296
264 261 259 257 255 254 253 253 253 252 251 251 250 249 248 249 249 248 245 242 238 235 235 235 235 235 235 236 237 239 239 240 240 240 241 243 244 246 248 249 250 251 252 253 254 256 257 258 259 260 261 262 262 263 264 265 266 267 268 269 270 271 273 274 275 276 277 278 279 280 281 282 283 285 286 287 288 289 290 291 292 293 294 295 296
266 264 262 260 258 255 254 253 252 252 252 251 250 249 248 248 248 247 246 244 241 238 236 235 236 236 236 236 237 237 239 240 241 241 242 243 243 245 246 248 250 252 253 254 255 256 257 258 259 260 261 262 263 264 265 266 266 267 268 269 271 272 273 274 275 276 277 278 279 280 281 282 284 285 286 287 288 289 290 291 292 293 294 295 296
268 266 264 262 261 259 257 255 253 252 252 251 251 250 249 248 248 247 246 244 242 240 238 237 236 237 237 237 238 238 238 239 240 241 242 243 244 244 245 247 249 250 252 254 255 256 257 258 259 259 260 261 263 264 265 266 267 268 269 271 272 273 274 275 276 276 277 278 279 281 282 283 284 285 286 287 288 288 289 290 291 293 294 295 297
270 269 267 264 262 261 260 258 257 255 253 252 252 251 250 249 248 248 247 245 243 242 240 239 238 238 238 238 238 239 239 240 240 241 241 242 243 244 245 246 247 249 250 252 253 255 256 257 258 259 260 261 262 263 265 266 267 268 270 271 272 273 273 274 275 276 277 279 280 281 282 283 284 284 285 286 287 288 289 291 292 293 295 296 297
271 269 268 267 265 263 261 260 259 258 257 255 253 252 251 251 250 249 248 247 245 244 242 240 239 239 239 240 240 240 240 240 241 241 242 242 243 244 245 246 246 247 248 250 251 253 255 256 257 258 259 260 261 263 264 265 267 268 268 269 270 271 272 273 274 275 276 278 279 280 281 282 283 284 285 286 287 288 290 291 292 293 295 296 297
276 272 270 268 267 266 264 262 260 259 259 258 256 255 253 252 251 250 249 248 247 246 245 243 241 240 240 240 241 241 241 241 241 241 242 242 243 244 244 245 246 247 247 248 249 251 253 254 256 257 258 259 260 261 262 264 265 266 267 268 269 270 271 272 273 274 275 277 278 279 280 281 282 283 285 286 287 289 290 291 292 293 294 295 296
285 281 276 272 268 266 265 264 262 261 259 259 258 257 256 255 253 252 251 250 249 248 247 246 244 243 241 241 241 242 242 242 242 242 242 242 243 244 244 245 246 246 247 247 248 249 250 252 254 255 257 258 259 260 261 262 263 265 266 267 268 269 270 272 273 274 275 276 277 278 280 281 282 283 285 286 287 289 290 291 292 293 294 295 296
287 286 283 280 276 271 267 265 263 262 261 260 259 258 257 257 256 255 253 252 251 250 248 247 247 246 245 243 242 242 242 243 243 243 243 243 243 244 244 245 246 246 247 247 248 248 249 250 252 253 255 256 258 259 260 261 262 264 265 266 267 268 270 271 272 273 274 276 277 278 279 280 282 283 285 286 287 288 289 290 291 292 293 294 295
287 286 285 283 281 279 275 271 266 263 261 260 259 259 258 257 257 257 256 255 254 252 251 249 248 247 247 246 245 244 243 243 243 244 244 244 244 245 245 245 246 246 247 247 248 248 249 250 251 252 253 255 256 257 259 260 261 263 264 265 266 268 269 270 271 272 274 275 276 278 279 280 282 283 284 285 287 288 289 290 291 292 293 294 295
291 288 286 284 283 281 280 277 274 270 266 262 260 259 258 258 257 257 257 257 256 255 253 252 250 249 248 248 247 247 246 245 244 244 244 244 245 245 246 246 246 247 247 248 248 249 250 250 251 252 253 254 255 256 258 259 260 262 263 264 266 267 268 269 271 272 273 275 276 277 279 280 281 282 284 285 286 287 288 289 291 292 293 294 294
299 295 291 287 284 282 281 280 278 276 274 270 266 263 260 259 258 257 256 256 256 256 255 254 253 252 251 250 249 248 248 247 247 246 245 245 245 245 246 246 247 247 248 249 249 250 250 251 252 252 253 254 255 256 258 259 260 261 263 264 265 266 268 269 270 272 273 274 276 277 278 280 281 282 283 284 286 287 288 289 290 291 292 293 294
307 304 299 295 290 286 283 280 279 277 276 275 273 270 266 263 260 258 256 256 256 256 256 256 255 254 253 253 252 250 250 249 248 248 248 247 247 246 246 246 247 247 248 249 250 250 251 252 252 253 254 255 256 257 258 259 260 261 263 264 265 266 268 269 270 272 273 274 276 277 278 279 281 282 283 284 285 287 288 289 290 291 292 293 294
311 309 307 303 299 295 291 286 282 279 277 276 275 274 272 270 266 263 260 258 256 255 255 255 255 255 255 254 254 253 252 251 250 250 249 249 249 249 248 248 248 248 249 249 250 251 251 252 253 254 255 256 257 258 259 260 261 262 263 264 265 267 268 269 270 272 273 274 275 277 278 279 280 282 283 284 286 287 288 289 290 291 292 293 295
314 313 311 309 306 303 299 295 291 287 283 280 277 275 274 273 272 269 266 263 260 258 256 255 255 256 255 255 254 254 254 254 253 252 251 251 250 250 250 250 250 250 250 250 251 251 252 252 253 254 255 256 257 258 259 260 261 262 263 264 266 267 268 269 270 272 273 274 275 277 278 279 281 282 283 285 286 287 288 290 291 291 292 293 294
317 315 314 312 310 308 305 302 299 295 292 288 284 280 277 274 273 272 271 269 266 263 260 258 257 256 255 255 255 254 254 254 254 254 254 253 252 252 251 251 251 251 252 252 252 253 253 253 254 255 255 256 257 258 259 260 261 262 264 265 266 267 268 269 270 272 273 274 276 277 278 280 281 283 284 285 286 288 289 290 291 292 292 293 294
Height
10584 10585 10587 10589 10591 10593 10596 10601 10606 10610 10613 10615 10618 10620 10622 10623 10625 10627 10630 10635 10639 10643 10646 10649 10652 10656 10659 10661 10662 10664 10666 10667 10669 10670 10671 10672 10673 10673 10674 10674 10675 10675 10673 10673 10675 10676 10676 10677 10678 10678 10678 10678 10678 10678 10678 10678 10678 10678 10678 10677 10677 10677 10676 10676 10674 10673 10672 10671 10672 10671 10671 10669 10668 10666 10666 10664 10663 10662 10661 10659 10658 10657 10656 10654 10653
10579 10581 10582 10584 10586 10587 10590 10594 10600 10605 10607 10609 10612 10614 10616 10617 10619 10621 10624 10629 10634 10638 10641 10643 10646 10649 10652 10654 10656 10658 10660 10661 10663 10664 10665 10667 10668 10669 10669 10669 10669 10670 10670 10669 10669 10671 10672 10672 10672 10673 10673 10673 10673 10673 10673 10673 10673 10673 10673 10673 10673 10672 10672 10671 10670 10668 10667 10667 10667 10667 10666 10665 10663 10662 10661 10660 10659 10658 10657 10655 10654 10652 10651 10650 10649
10575 10577 10578 10580 10582 10584 10585 10589 10594 10599 10602 10604 10606 10608 10610 10611 10613 10615 10618 10622 10627 10632 10635 10638 10640 10643 10646 10648 10650 10652 10654 10656 10657 10658 10659 10661 10663 10664 10664 10664 10665 10666 10666 10664 10663 10666 10668 10667 10667 10668 10668 10668 10668 10668 10667 10667 10668 10668 10668 10668 10668 10668 10667 10667 10665 10664 10663 10662 10662 10662 10661 10660 10659 10658 10656 10655 10654 10653 10652 10651 10649 10648 10647 10646 10644
10572 10573 10575 10576 10578 10581 10582 10585 10588 10593 10596 10598 10600 10602 10604 10605 10607 10610 10613 10616 10620 10625 10629 10633 10635 10637 10639 10642 10644 10646 10648 10650 10651 10652 10653 10655 10657 10658 10658 10659 10660 10661 10661 10659 10658 10660 10661 10662 10662 10662 10663 10663 10663 10663 10662 10662 10662 10663 10663 10663 10663 10663 10662 10662 10660 10659 10658 10657 10657 10656 10656 10655 10654 10653 10652 10651 10650 10648 10647 10646 10645 10643 10642 10641 10640
10569 10570 10571 10572 10575 10577 10579 10581 10583 10586 10589 10592 10594 10596 10598 10600 10602 10605 10608 10611 10614 10619 10623 10627 10629 10631 10633 10636 10639 10641 10642 10643 10645 10646 10648 10650 10651 10652 10653 10654 10655 10655 10655 10654 10653 10654 10655 10656 10657 10657 10658 10658 10658 10658 10657 10657 10657 10658 10658 10658 10658 10658 10657 10656 10655 10654 10653 10652 10651 10651 10651 10650 10649 10648 10647 10646 10645 10643 10642 10641 10640 10639 10637 10637 10636
10565 10566 10567 10569 10571 10572 10574 10576 10578 10580 10583 10585 10587 10589 10591 10594 10597 10599 10603 10606 10609 10613 10617 10620 10622 10625 10628 10631 10633 10635 10636 10637 10639 10641 10642 10644 10645 10646 10647 10648 10649 10650 10650 10649 10648 10649 10650 10650 10651 10652 10652 10653 10653 10653 10653 10652 10652 10652 10653 10652 10652 10652 10652 10651 10650 10648 10647 10647 10647 10647 10646 10645 10644 10643 10642 10641 10640 10638 10637 10636 10635 10634 10632 10632 10630
10562 10563 10564 10566 10567 10568 10570 10571 10573 10574 10577 10578 10580 10582 10585 10588 10591 10594 10597 10600 10603 10607 10610 10613 10617 10619 10622 10624 10627 10629 10630 10632 10634 10636 10637 10638 10638 10639 10641 10642 10643 10644 10645 10643 10642 10643 10644 10645 10645 10646 10647 10647 10648 10648 10648 10647 10647 10647 10647 10646 10646 10646 10646 10646 10645 10642 10641 10642 10643 10641 10641 10640 10639 10638 10637 10636 10634 10633 10631 10631 10630 10629 10627 10626 10625
10558 10559 10561 10563 10564 10565 10566 10567 10568 10569 10571 10573 10575 10577 10580 10583 10586 10590 10593 10595 10598 10601 10604 10607 10611 10614 10616 10618 10621 10623 10624 10626 10628 10630 10631 10631 10632 10633 10635 10636 10637 10638 10640 10639 10637 10637 10638 10639 10640 10640 10641 10641 10642 10643 10643 10642 10642 10641 10641 10641 10641 10641 10641 10641 10640 10637 10636 10637 10637 10636 10635 10635 10634 10633 10631 10630 10629 10627 10626 10626 10625 10623 10622 10621 10620
10554 10555 10557 10559 10560 10561 10562 10563 10564 10565 10566 10567 10569 10571 10574 10577 10581 10585 10588 10591 10593 10596 10599 10602 10605 10608 10610 10613 10615 10617 10619 10621 10623 10624 10624 10625 10626 10627 10629 10631 10632 10633 10634 10634 10632 10631 10632 10633 10634 10634 10634 10635 10636 10637 10637 10637 10636 10636 10635 10635 10636 10636 10635 10635 10635 10633 10632 10632 10632 10631 10629 10629 10628 10627 10626 10624 10623 10622 10621 10620 10619 10617 10615 10615 10614
10549 10551 10553 10554 10556 10557 10558 10559 10560 10561 10562 10563 10564 10566 10568 10571 10575 10578 10582 10586 10589 10591 10594 10598 10600 10603 10605 10607 10609 10612 10613 10615 10617 10618 10618 10619 10620 10622 10624 10625 10626 10628 10628 10628 10627 10626 10626 10627 10628 10629 10629 10629 10631 10631 10631 10632 10631 10630 10629 10629 10629 10629 10630 10630 10629 10628 10628 10627 10626 10626 10624 10622 10621 10621 10620 10618 10617 10615 10615 10614 10612 10611 10609 10608 10608
10544 10546 10548 10549 10551 10552 10554 10555 10556 10557 10558 10559 10559 10561 10563 10566 10569 10572 10576 10580 10583 10585 10589 10592 10595 10598 10600 10602 10604 10606 10607 10609 10611 10612 10612 10612 10613 10615 10618 10619 10620 10621 10622 10621 10621 10621 10621 10621 10622 10623 10623 10623 10624 10625 10625 10626 10626 10625 10624 10624 10623 10623 10623 10624 10623 10623 10622 10621 10620 10620 10619 10617 10616 10615 10613 10612 10611 10609 10608 10607 10606 10604 10603 10602 10602
10539 10541 10543 10545 10546 10548 10549 10551 10552 10552 10553 10554 10554 10556 10557 10560 10563 10567 10571 10574 10577 10580 10583 10587 10590 10592 10594 10596 10598 10599 10600 10602 10604 10605 10605 10605 10606 10609 10612 10612 10613 10614 10614 10614 10615 10615 10615 10615 10616 10617 10617 10617 10618 10619 10619 10620 10620 10619 10619 10619 10618 10617 10617 10617 10617 10617 10616 10615 10613 10612 10613 10612 10611 10609 10607 10606 10605 10603 10602 10601 10600 10598 10596 10595 10595
10533 10535 10538 10539 10541 10543 10544 10546 10547 10548 10548 10549 10550 10551 10553 10556 10559 10562 10565 10569 10572 10575 10578 10581 10584 10586 10588 10589 10591 10592 10593 10594 10596 10597 10598 10599 10600 10602 10604 10605 10606 10607 10607 10607 10609 10609 10609 10609 10610 10610 10611 10611 10611 10612 10612 10613 10613 10613 10613 10613 10613 10612 10611 10611 10611 10610 10610 10610 10606 10604 10606 10607 10605 10602 10601 10600 10599 10597 10595 10594 10592 10591 10589 10588 10588
10527 10529 10531 10533 10535 10537 10539 10541 10542 10543 10543 10544 10546 10547 10549 10551 10554 10557 10560 10564 10567 10570 10573 10576 10578 10580 10581 10582 10584 10586 10586 10586 10588 10590 10591 10592 10594 10595 10596 10598 10599 10599 10600 10601 10601 10602 10603 10603 10603 10604 10604 10605 10605 10605 10605 10606 10606 10606 10607 10607 10607 10606 10606 10605 10605 10604 10604 10603 10600 10598 10599 10600 10598 10595 10594 10593 10592 10590 10589 10587 10586 10584 10582 10581 10581
10521 10522 10524 10527 10529 10531 10533 10535 10537 10538 10539 10540 10541 10543 10545 10547 10549 10552 10555 10558 10561 10565 10568 10570 10572 10574 10575 10576 10578 10579 10578 10579 10581 10583 10584 10585 10587 10588 10589 10591 10592 10592 10593 10594 10594 10595 10596 10596 10597 10597 10598 10598 10599 10599 10599 10599 10599 10599 10599 10600 10600 10600 10599 10599 10598 10598 10597 10596 10594 10593 10593 10593 10591 10589 10587 10586 10585 10584 10582 10581 10579 10577 10576 10574 10573
10513 10515 10518 10520 10522 10524 10527 10529 10531 10533 10534 10535 10537 10538 10540 10542 10544 10546 10549 10553 10556 10559 10562 10564 10566 10568 10569 10570 10571 10571 10571 10573 10575 10575 10576 10577 10579 10581 10583 10584 10585 10586 10586 10587 10588 10589 10589 10589 10590 10590 10591 10592 10592 10592 10592 10592 10592 10592 10592 10592 10592 10592 10592 10592 10591 10591 10590 10589 10588 10587 10586 10585 10584 10582 10581 10579 10578 10577 10575 10574 10572 10571 10569 10567 10566
10506 10508 10510 10512 10514 10517 10520 10523 10525 10527 10529 10530 10532 10533 10535 10537 10539 10542 10544 10548 10551 10553 10555 10558 10559 10561 10563 10563 10563 10564 10564 10567 10569 10569 10569 10571 10573 10574 10576 10576 10578 10579 10580 10581 10581 10582 10582 10582 10582 10583 10584 10584 10584 10585 10585 10585 10585 10585 10584 10585 10585 10585 10585 10584 10583 10583 10583 10582 10581 10580 10579 10578 10576 10575 10574 10572 10571 10570 10568 10567 10565 10563 10561 10560 10558
10498 10499 10502 10504 10507 10510 10512 10516 10519 10521 10523 10525 10526 10528 10530 10532 10534 10537 10540 10543 10545 10547 10549 10551 10552 10554 10555 10555 10556 10558 10559 10560 10561 10561 10561 10564 10566 10567 10568 10570 10571 10572 10573 10574 10574 10574 10574 10574 10575 10576 10576 10576 10577 10577 10577 10577 10577 10577 10577 10577 10577 10577 10577 10576 10575 10576 10576 10574 10573 10572 10571 10570 10569 10567 10566 10565 10564 10562 10561 10559 10558 10556 10554 10552 10550
10491 10492 10494 10496 10499 10502 10504 10508 10511 10514 10517 10518 10520 10522 10524 10526 10528 10531 10534 10536 10538 10540 10542 10544 10545 10547 10549 10549 10550 10551 10552 10552 10552 10552 10555 10557 10558 10559 10560 10562 10563 10564 10565 10566 10566 10566 10567 10567 10567 10568 10569 10569 10569 10568 10568 10569 10569 10569 10569 10569 10569 10569 10568 10568 10568 10568 10567 10566 10565 10565 10564 10562 10561 10560 10559 10558 10556 10555 10553 10552 10550 10548 10546 10544 10542
10485 10485 10486 10488 10490 10493 10496 10499 10503 10507 10510 10511 10513 10515 10517 10520 10522 10524 10526 10528 10531 10533 10535 10537 10539 10541 10543 10544 10544 10544 10543 10543 10543 10546 10549 10551 10551 10551 10552 10553 10554 10556 10557 10557 10558 10558 10558 10559 10559 10560 10560 10560 10560 10560 10560 10560 10561 10561 10561 10561 10561 10561 10560 10559 10559 10559 10558 10558 10557 10556 10556 10555 10554 10552 10551 10550 10549 10547 10546 10544 10542 10540 10538 10537 10534
10478 10478 10479 10480 10482 10485 10487 10491 10495 10499 10502 10504 10506 10508 10510 10513 10515 10516 10519 10522 10525 10527 10529 10531 10533 10534 10536 10536 10536 10536 10536 10536 10537 10540 10543 10543 10543 10544 10544 10545 10546 10547 10548 10548 10549 10550 10550 10550 10550 10551 10551 10552 10551 10551 10551 10552 10553 10553 10553 10553 10553 10552 10552 10551 10551 10550 10549 10549 10549 10548 10548 10547 10546 10545 10543 10542 10540 10539 10537 10535 10534 10532 10530 10528 10525
10470 10471 10472 10473 10474 10476 10479 10482 10485 10490 10494 10496 10498 10500 10502 10505 10507 10509 10512 10515 10518 10520 10523 10525 10526 10526 10528 10529 10529 10529 10530 10530 10531 10533 10534 10534 10535 10536 10537 10537 10538 10538 10539 10540 10540 10541 10541 10541 10541 10541 10542 10543 10543 10543 10543 10543 10544 10545 10545 10545 10545 10544 10543 10543 10542 10542 10541 10540 10540 10539 10539 10538 10537 10536 10535 10533 10531 10529 10528 10526 10525 10523 10521 10519 10516
10463 10464 10464 10465 10467 10468 10471 10473 10476 10480 10484 10487 10490 10492 10494 10497 10499 10502 10504 10507 10510 10512 10515 10517 10518 10519 10521 10522 10522 10522 10523 10523 10524 10524 10525 10526 10528 10528 10528 10529 10529 10530 10531 10532 10532 10532 10532 10531 10531 10532 10534 10534 10534 10534 10534 10535 10536 10537 10537 10537 10536 10535 10534 10534 10534 10533 10532 10532 10531 10530 10529 10528 10527 10526 10525 10523 10521 10520 10519 10517 10516 10513 10511 10509 10507
10455 10456 10457 10458 10459 10461 10462 10464 10467 10470 10474 10477 10480 10483 10486 10488 10491 10494 10497 10499 10502 10504 10507 10509 10509 10510 10512 10514 10514 10514 10514 10514 10514 10515 10516 10518 10519 10520 10520 10521 10521 10522 10523 10523 10523 10523 10523 10521 10521 10522 10525 10526 10526 10526 10526 10527 10527 10528 10528 10527 10527 10526 10525 10525 10525 10524 10524 10523 10522 10521 10520 10519 10518 10517 10515 10514 10512 10511 10509 10508 10506 10504 10502 10500 10497
10446 10448 10449 10450 10450 10452 10454 10456 10458 10461 10464 10467 10469 10473 10476 10479 10482 10485 10488 10491 10494 10496 10498 10500 10501 10502 10503 10505 10506 10506 10505 10505 10505 10506 10508 10510 10510 10511 10512 10513 10513 10514 10515 10515 10514 10514 10513 10512 10511 10513 10515 10516 10515 10516 10517 10518 10519 10519 10518 10517 10517 10517 10517 10516 10516 10515 10515 10514 10513 10512 10510 10509 10508 10507 10506 10504 10503 10501 10499 10498 10496 10494 10492 10490 10487
10438 10439 10440 10441 10442 10443 10445 10448 10450 10452 10454 10457 10459 10463 10466 10469 10473 10476 10479 10482 10485 10487 10489 10491 10493 10493 10494 10495 10497 10498 10497 10497 10497 10498 10500 10501 10502 10503 10504 10505 10505 10505 10506 10506 10505 10504 10504 10503 10503 10505 10505 10505 10504 10505 10506 10507 10508 10507 10507 10507 10507 10507 10507 10506 10506 10505 10505 10503 10502 10501 10500 10499 10498 10497 10496 10495 10494 10492 10490 10488 10486 10484 10482 10479 10477
10429 10430 10431 10432 10433 10434 10436 10438 10441 10443 10445 10447 10450 10453 10456 10459 10462 10466 10469 10472 10475 10477 10479 10481 10483 10484 10485 10486 10487 10488 10489 10490 10490 10491 10492 10493 10495 10495 10496 10496 10496 10496 10496 10497 10496 10496 10495 10495 10495 10496 10495 10495 10495 10495 10496 10497 10496 10496 10496 10497 10497 10497 10497 10497 10496 10496 10495 10494 10494 10493 10492 10491 10489 10488 10487 10486 10484 10483 10481 10479 10477 10475 10472 10470 10467
10419 10420 10421 10422 10424 10426 10427 10429 10431 10434 10436 10438 10440 10443 10446 10449 10451 10454 10458 10461 10464 10467 10469 10471 10472 10474 10476 10477 10478 10479 10479 10481 10482 10483 10483 10484 10486 10486 10486 10486 10487 10487 10487 10487 10487 10486 10486 10486 10486 10486 10486 10486 10486 10487 10488 10488 10487 10486 10487 10488 10488 10488 10488 10487 10487 10486 10486 10485 10484 10483 10482 10481 10480 10479 10477 10476 10474 10473 10471 10469 10467 10464 10462 10460 10457
10409 10410 10411 10412 10414 10416 10418 10419 10421 10423 10426 10429 10431 10433 10436 10438 10441 10443 10447 10450 10453 10456 10458 10460 10462 10464 10465 10467 10469 10470 10470 10471 10472 10473 10474 10475 10476 10477 10476 10475 10476 10477 10477 10477 10477 10476 10476 10476 10477 10477 10477 10477 10477 10478 10479 10478 10478 10478 10478 10478 10478 10478 10478 10477 10477 10476 10476 10475 10474 10473 10472 10471 10470 10468 10467 10465 10464 10462 10460 10458 10456 10453 10450 10448 10444
10398 10399 10400 10401 10403 10406 10408 10409 10410 10413 10415 10418 10421 10423 10426 10428 10430 10433 10435 10439 10442 10445 10447 10449 10451 10453 10455 10457 10458 10460 10461 10462 10463 10464 10464 10465 10467 10468 10467 10466 10466 10467 10468 10468 10467 10466 10465 10465 10466 10467 10467 10468 10469 10469 10469 10468 10468 10468 10468 10468 10468 10468 10468 10467 10466 10466 10465 10465 10464 10463 10462 10461 10460 10458 10456 10455 10453 10451 10449 10447 10444 10441 10437 10433 10430
10387 10388 10389 10390 10392 10395 10397 10398 10400 10401 10404 10406 10409 10412 10415 10417 10419 10422 10424 10427 10430 10433 10436 10438 10440 10443 10445 10446 10448 10449 10451 10452 10453 10454 10455 10456 10457 10458 10458 10457 10457 10457 10458 10458 10457 10456 10455 10455 10456 10456 10457 10458 10460 10460 10459 10458 10458 10458 10458 10458 10458 10457 10457 10457 10456 10456 10455 10455 10454 10454 10453 10451 10450 10448 10446 10444 10442 10439 10436 10433 10430 10427 10423 10420 10417
10376 10377 10378 10379 10381 10383 10385 10387 10389 10391 10392 10394 10396 10400 10403 10405 10407 10410 10412 10415 10418 10421 10424 10427 10429 10432 10434 10436 10437 10438 10440 10441 10443 10444 10446 10447 10448 10449 10449 10449 10449 10448 10447 10447 10446 10446 10446 10446 10447 10448 10448 10449 10450 10450 10449 10449 10448 10448 10447 10447 10446 10445 10445 10444 10444 10443 10443 10443 10442 10441 10440 10438 10436 10434 10432 10430 10428 10425 10422 10419 10416 10413 10411 10408 10404
10363 10364 10365 10366 10368 10370 10371 10374 10377 10379 10381 10382 10383 10386 10390 10393 10396 10398 10401 10404 10406 10409 10412 10415 10418 10420 10423 10425 10426 10428 10429 10430 10431 10433 10435 10436 10438 10439 10440 10441 10441 10440 10439 10439 10438 10437 10437 10439 10440 10440 10441 10441 10440 10440 10440 10439 10439 10438 10437 10436 10434 10433 10432 10431 10430 10429 10429 10428 10427 10426 10425 10424 10422 10420 10419 10417 10415 10412 10409 10407 10404 10401 10398 10395 10392
10351 10352 10353 10353 10355 10356 10357 10360 10363 10366 10367 10369 10371 10373 10376 10380 10384 10387 10389 10392 10395 10397 10400 10403 10406 10408 10411 10413 10415 10417 10419 10420 10421 10422 10423 10425 10426 10428 10430 10430 10431 10431 10431 10431 10430 10429 10429 10430 10431 10432 10432 10432 10431 10430 10430 10429 10428 10427 10426 10425 10424 10422 10421 10420 10419 10418 10417 10416 10415 10414 10413 10411 10410 10408 10406 10404 10402 10400 10397 10395 10392 10389 10386 10383 10381
10340 10340 10341 10342 10343 10343 10345 10347 10349 10352 10354 10356 10358 10360 10363 10366 10370 10375 10378 10380 10382 10385 10388 10391 10394 10396 10399 10401 10404 10406 10408 10409 10411 10412 10413 10414 10415 10417 10418 10419 10420 10421 10421 10421 10421 10420 10420 10421 10422 10423 10422 10421 10421 10420 10420 10419 10418 10417 10416 10414 10413 10412 10411 10410 10409 10408 10407 10406 10405 10403 10402 10400 10398 10396 10395 10393 10391 10388 10386 10383 10380 10378 10375 10372 10369
10330 10330 10331 10332 10332 10333 10333 10335 10337 10339 10340 10342 10345 10348 10350 10353 10357 10361 10365 10368 10370 10373 10376 10379 10381 10384 10386 10389 10391 10394 10396 10398 10400 10401 10402 10403 10405 10406 10407 10408 10409 10410 10411 10411 10411 10411 10410 10410 10412 10412 10412 10411 10410 10409 10409 10408 10407 10406 10405 10404 10403 10402 10401 10400 10399 10398 10397 10396 10394 10393 10391 10390 10388 10386 10384 10382 10380 10377 10375 10372 10369 10366 10363 10360 10357
10320 10321 10321 10322 10322 10323 10324 10324 10325 10327 10328 10330 10333 10335 10338 10341 10344 10347 10352 10356 10359 10361 10364 10366 10369 10372 10374 10377 10379 10381 10383 10386 10388 10390 10392 10393 10394 10395 10396 10397 10398 10399 10399 10400 10401 10401 10400 10400 10401 10401 10400 10399 10398 10398 10397 10396 10396 10395 10394 10393 10392 10391 10390 10389 10388 10387 10386 10385 10384 10382 10380 10379 10377 10375 10373 10371 10369 10366 10363 10360 10358 10354 10351 10348 10345
10311 10311 10311 10312 10312 10313 10314 10314 10315 10316 10317 10319 10321 10323 10326 10329 10332 10335 10338 10342 10346 10349 10352 10354 10357 10359 10362 10364 10367 10369 10371 10373 10376 10378 10380 10382 10383 10385 10386 10387 10388 10388 10388 10389 10389 10390 10390 10389 10389 10389 10388 10387 10386 10385 10385 10384 10383 10383 10382 10382 10381 10380 10379 10378 10376 10375 10374 10373 10372 10370 10369 10367 10365 10363 10361 10359 10356 10354 10351 10348 10345 10343 10340 10337 10334
10302 10302 10302 10302 10303 10303 10304 10304 10305 10306 10307 10308 10309 10312 10314 10317 10320 10322 10326 10329 10333 10336 10339 10342 10345 10347 10349 10352 10355 10357 10359 10361 10363 10365 10367 10369 10371 10374 10376 10377 10378 10378 10378 10378 10378 10379 10379 10379 10378 10378 10377 10376 10375 10374 10373 10372 10371 10371 10370 10369 10368 10367 10366 10365 10363 10361 10360 10359 10358 10357 10355 10354 10352 10350 10348 10346 10344 10341 10339 10336 10334 10331 10328 10325 10322
10294 10294 10294 10294 10294 10294 10295 10295 10296 10296 10297 10298 10299 10301 10303 10305 10308 10310 10313 10316 10320 10323 10326 10330 10332 10335 10337 10339 10342 10344 10347 10349 10351 10353 10355 10357 10358 10361 10363 10365 10367 10368 10368 10368 10368 10368 10368 10368 10367 10367 10366 10365 10364 10363 10362 10361 10360 10359 10358 10357 10356 10354 10353 10351 10350 10348 10347 10346 10345 10344 10343 10341 10340 10338 10336 10334 10332 10329 10327 10324 10321 10319 10316 10313 10309
10288 10287 10286 10286 10286 10286 10286 10287 10287 10287 10288 10288 10290 10291 10292 10293 10296 10298 10301 10304 10307 10309 10313 10317 10320 10322 10324 10327 10329 10331 10333 10336 10338 10341 10343 10345 10346 10348 10350 10352 10353 10355 10357 10358 10357 10356 10356 10356 10356 10356 10355 10354 10353 10352 10350 10349 10348 10347 10346 10345 10344 10342 10341 10340 10338 10337 10336 10335 10334 10332 10331 10329 10327 10325 10323 10321 10319 10316 10314 10312 10309 10307 10304 10301 10297
10281 10280 10280 10279 10279 10278 10278 10278 10278 10278 10278 10279 10280 10281 10282 10283 10284 10286 10289 10291 10294 10297 10299 10303 10306 10309 10311 10313 10316 10317 10320 10322 10325 10328 10330 10332 10334 10336 10338 10339 10341 10342 10344 10346 10346 10346 10345 10344 10344 10343 10343 10342 10341 10340 10339 10338 10337 10336 10335 10333 10332 10331 10329 10328 10327 10326 10325 10324 10322 10320 10319 10317 10315 10313 10311 10309 10306 10304 10302 10299 10297 10295 10292 10289 10286
10273 10273 10272 10272 10272 10271 10271 10270 10270 10270 10270 10270 10270 10271 10271 10272 10273 10275 10277 10279 10282 10285 10287 10290 10293 10295 10298 10300 10302 10304 10306 10308 10311 10314 10317 10319 10321 10323 10325 10327 10328 10330 10331 10333 10334 10334 10334 10333 10332 10331 10330 10330 10329 10329 10328 10326 10325 10324 10323 10322 10320 10319 10317 10316 10314 10313 10312 10311 10310 10308 10306 10304 10302 10300 10299 10297 10295 10293 10290 10287 10285 10283 10280 10277 10274
10267 10266 10265 10264 10264 10263 10263 10263 10262 10262 10261 10261 10261 10262 10262 10262 10263 10264 10266 10268 10270 10273 10275 10278 10281 10282 10284 10287 10290 10291 10292 10294 10297 10300 10303 10305 10307 10309 10311 10313 10315 10317 10318 10320 10321 10322 10322 10321 10321 10320 10319 10318 10317 10316 10315 10314 10313 10312 10310 10309 10308 10306 10305 10304 10302 10301 10300 10299 10298 10296 10295 10293 10291 10289 10287 10285 10283 10281 10279 10276 10273 10271 10268 10265 10262
10261 10260 10258 10257 10256 10255 10255 10254 10254 10254 10253 10253 10252 10252 10253 10253 10254 10255 10256 10257 10258 10261 10263 10266 10268 10270 10271 10273 10276 10278 10280 10281 10283 10286 10288 10291 10293 10295 10297 10299 10301 10303 10304 10306 10308 10309 10309 10309 10309 10309 10308 10307 10306 10305 10304 10303 10301 10300 10298 10297 10296 10295 10293 10292 10291 10290 10289 10288 10287 10285 10284 10282 10280 10278 10276 10274 10271 10269 10267 10265 10262 10259 10256 10253 10250
10256 10254 10253 10251 10249 10248 10246 10246 10245 10245 10245 10245 10244 10244 10244 10245 10245 10246 10246 10246 10247 10249 10251 10253 10255 10257 10259 10260 10263 10265 10267 10269 10270 10272 10274 10277 10279 10281 10283 10285 10287 10289 10290 10292 10294 10295 10296 10296 10296 10296 10296 10295 10295 10294 10293 10292 10290 10289 10287 10286 10285 10284 10282 10281 10280 10279 10278 10277 10275 10274 10272 10271 10269 10267 10265 10262 10260 10258 10255 10253 10250 10247 10245 10242 10238
10250 10248 10247 10246 10244 10242 10240 10239 10237 10236 10236 10235 10236 10236 10236 10236 10236 10237 10236 10236 10236 10237 10239 10241 10242 10244 10246 10248 10250 10252 10254 10256 10258 10259 10261 10263 10265 10267 10269 10271 10273 10275 10276 10278 10279 10280 10281 10282 10282 10282 10282 10282 10282 10281 10280 10279 10278 10277 10276 10275 10274 10272 10271 10270 10268 10267 10266 10265 10264 10263 10261 10259 10257 10255 10253 10251 10249 10246 10244 10241 10238 10235 10233 10230 10226
10244 10242 10241 10239 10238 10236 10234 10233 10231 10229 10228 10227 10226 10226 10227 10227 10227 10227 10227 10227 10227 10227 10228 10229 10230 10232 10234 10235 10237 10239 10241 10243 10245 10246 10248 10250 10251 10253 10255 10257 10258 10260 10262 10263 10264 10265 10266 10267 10268 10268 10268 10268 10268 10268 10267 10266 10265 10264 10263 10263 10262 10261 10259 10258 10257 10256 10255 10253 10252 10250 10249 10247 10245 10243 10241 10239 10237 10234 10232 10229 10226 10223 10220 10217 10214
10239 10237 10235 10233 10231 10230 10228 10226 10225 10223 10221 10220 10219 10218 10218 10217 10217 10217 10217 10217 10217 10218 10218 10219 10220 10221 10222 10224 10225 10226 10228 10229 10231 10233 10235 10236 10238 10239 10241 10243 10244 10246 10247 10249 10250 10251 10252 10253 10253 10254 10254 10254 10254 10254 10253 10253 10252 10251 10250 10250 10249 10248 10247 10246 10245 10244 10242 10241 10239 10238 10236 10234 10232 10231 10229 10227 10224 10222 10219 10217 10214 10211 10208 10204 10201
10235 10233 10230 10227 10225 10223 10221 10220 10218 10216 10215 10213 10212 10211 10210 10209 10208 10207 10207 10207 10207 10208 10209 10210 10211 10211 10212 10213 10214 10215 10215 10216 10218 10220 10221 10223 10224 10226 10227 10229 10230 10232 10233 10234 10235 10237 10237 10238 10239 10240 10240 10240 10240 10240 10239 10239 10238 10238 10237 10236 10236 10235 10234 10234 10232 10231 10230 10229 10227 10226 10224 10222 10220 10219 10217 10214 10212 10209 10206 10203 10201 10198 10195 10192 10189
10231 10229 10226 10223 10220 10218 10216 10213 10211 10209 10207 10206 10205 10204 10203 10203 10201 10199 10197 10196 10196 10197 10200 10202 10202 10202 10202 10202 10203 10203 10204 10205 10206 10207 10208 10209 10211 10213 10214 10216 10217 10218 10219 10220 10221 10222 10223 10224 10225 10226 10226 10226 10226 10226 10226 10225 10225 10224 10224 10223 10223 10222 10222 10221 10220 10219 10218 10216 10215 10214 10212 10211 10209 10207 10205 10202 10199 10196 10193 10190 10187 10184 10182 10179 10177